114  
NZUS93 KARX 221410  
HRRWXR  
 
CURRENT HOURLY OBSERVATIONS ACROSS  
MUCH OF THE UPPER MISSISSIPPI VALLEY  
NATIONAL WEATHER SERVICE LA CROSSE WI  
800 AM CST MON JAN 22 2018  
 
   
..SOUTHEAST MINNESOTA
 
 
 
CITY SKY/WX TMP DP RH WIND PRES REMARKS  
ROCHESTER LGT SNOW 32 32 100 NE25G33 29.62F FOG WCI 19  
ROCHESTER/MAYO CLOUDY 32 32 100 NE9G20 29.65F WCI 24  
WINONA LGT SNOW 34 32 93 NE7 29.68F WCI 28  
AUSTIN NOT AVBL  
ALBERT LEA LGT SNOW 34 32 93 NE25G36 29.57F WCI 21  
DODGE CENTER LGT SNOW 32 30 93 NE18G30 29.62F WCI 20  
PRESTON LGT RAIN 33 32 96 NE20 29.60F WCI 21  
OWATONNA N/A 34 30 86 N22G29 29.63F WCI 22  
FARIBAULT LGT SNOW 32 30 93 N15G22 29.69F VSB 1 WCI 22  

 
   
..ELSEWHERE IN MINNESOTA
 
 
 
CITY SKY/WX TMP DP RH WIND PRES REMARKS  
MINNEAPOLIS CLOUDY 32 29 88 N17G24 29.78F WCI 21  
INTNL FALLS CLOUDY 19 16 88 NE7 30.08S WCI 10  
DULUTH SNOW 24 22 91 E20 29.97S VSB 1/2 WCI 10  
RED WING FLURRIES 36 27 69 NE12G18 29.73F WCI 27  
REDWOOD FALLS CLOUDY 30 27 88 N13G31 29.77F WCI 20  
MANKATO LGT SNOW 32 30 92 NE25G31 29.67F VSB 1 WCI 19  
WORTHINGTON HVY SNOW 28 27 96 N29G36 29.62F VSB 1/4 WCI 12  
FAIRMONT LGT SNOW 32 31 96 N25G36 29.59F VSB 3/4 WCI 19  

 
   
..SOUTHWEST WISCONSIN
 
 
 
CITY SKY/WX TMP DP RH WIND PRES REMARKS  
LA CROSSE LGT RAIN 38 36 92 NE8G18 29.67F FOG WCI 32  
PRAIRIE DU CHI LGT RAIN 37 34 90 NE5 29.57F WCI 33  
BOSCOBEL LGT RAIN 37 37 100 NE8 29.60F FOG WCI 31  
LONE ROCK CLOUDY 37 36 96 NE10G22 29.61F FOG WCI 30  
PLATTEVILLE CLOUDY 37 37 100 NE13 29.55F WCI 29  
FORT MC COY LGT RAIN 34 33 97 NE12G18 29.68S WCI 25  
CAMP DOUGLAS LGT RAIN 35 35 99 NE13 29.67F FOG WCI 26  
MAUSTON-NEW LI LGT RAIN 35 34 96 NE8 29.66F WCI 29  
VIROQUA CLOUDY 34 34 100 NE16G24 29.63R WCI 24  
WIS DELLS CLOUDY 33 33 99 NE18 29.63F WCI 22  

 
   
..ELSEWHERE IN WISCONSIN
 
 
 
CITY SKY/WX TMP DP RH WIND PRES REMARKS  
MILWAUKEE RAIN 37 37 100 NE12 29.63F VSB 1/2 WCI 29  
MADISON LGT RAIN 37 36 96 E26G37 29.57F WCI 25  
GREEN BAY LGT RAIN 33 31 92 NE29G37 29.78F FOG WCI 19  
EAU CLAIRE CLOUDY 34 29 82 NE15G25 29.74F WCI 24  
BLACK RVR FLS LGT RAIN 35 35 100 NE8 29.71R WCI 28  
MEDFORD CLOUDY 32 29 88 NE17G24 29.74F WCI 21  
WAUSAU LGT SNOW 33 30 88 NE12 29.73F FOG WCI 24  
WIS RAPIDS RAIN 34 33 96 E13G21 29.71R FOG WCI 25  
MARSHFIELD LGT RAIN 33 32 96 NE21G26 29.69F FOG WCI 21  
RICE LAKE CLOUDY 31 28 89 N15 29.83F WCI 20  

 
   
..NORTHEAST IOWA
 
 
 
CITY SKY/WX TMP DP RH WIND PRES REMARKS  
WATERLOO LGT RAIN 36 34 92 E20G28 29.47F FOG WCI 25  
DUBUQUE MIX PCPN 36 36 100 NE15 29.53F VSB 1/4 WCI 27  
DECORAH LGT RAIN 36 36 100 NE16G23 29.55F WCI 26  
MASON CITY LGT RAIN 35 32 88 NE31G37 29.51F WCI 22  
CHARLES CITY LGT RAIN 36 36 100 NE21G33 29.52F WCI 24  
OELWEIN LGT RAIN 36 36 100 NE22G30 29.49F WCI 24  

 
   
..ELSEWHERE IN IOWA
 
 
 
CITY SKY/WX TMP DP RH WIND PRES REMARKS  
DES MOINES CLOUDY 41 41 100 NE9 29.36F FOG  
IOWA CITY CLOUDY 44 41 89 NE7 29.47F FOG  
FORT DODGE LGT RAIN 35 34 96 NE20G28 29.45F WCI 24  
MARSHALLTOWN CLOUDY 38 37 97 E20 29.41F WCI 28  
CEDAR RAPIDS FOG 41 41 100 E16 29.45F VSB 1/2  

 
   
..NORTHERN ILLINOIS
 
 
 
CITY SKY/WX TMP DP RH WIND PRES REMARKS  
CHICAGO-OHARE LGT RAIN 49 47 93 SE17 29.56F  
CHICAGO-MIDWAY CLOUDY 50 50 100 S13 29.58F  
MOLINE FOG 49 48 97 NE7 29.49F VSB 1/4  
ROCKFORD LGT RAIN 42 41 96 E15 29.54F  
PEORIA CLOUDY 51 51 100 S12 29.55S FOG  

 
 
NOTE: "FAIR" INDICATES FEW OR NO CLOUDS BELOW 12,000 FEET WITH NO  
SIGNIFICANT WEATHER AND/OR OBSTRUCTIONS TO VISIBILITY. WIND  
SPEEDS ARE IN MILES-PER-HOUR.  
 
 
CLICK HERE TO GO TO PREVIOUS BULLETINS.

The Nexlab WI Page
The Nexlab IA Page
The Nexlab MN Page Main Text Page